Theta_e
307 306 306 306 305 303 297 284 285 297 303 295 289 288 292 298 299 300 297 296 293 291 292 291 291 292 295 300 298 293 294 288 284 289 293 295 292 289 287 280 280 281 280 282
306 306 306 305 305 304 296 283 284 297 300 287 287 290 292 296 295 294 295 294 295 295 291 288 292 294 300 300 297 294 294 287 280 284 287 291 289 291 289 286 283 281 279 283
305 305 305 305 304 303 294 285 284 292 293 291 287 286 288 289 294 295 295 293 294 291 289 293 290 293 299 300 299 307 300 288 285 283 285 288 287 290 290 288 278 284 286 288
304 304 304 305 304 303 293 289 286 287 283 285 284 285 288 286 287 293 294 291 291 289 284 287 287 291 291 297 301 299 294 287 288 288 290 290 290 290 290 289 290 286 288 288
304 303 303 304 304 300 288 282 282 283 280 284 285 285 283 286 288 289 287 288 289 289 286 289 285 288 289 290 294 294 295 286 290 287 290 291 287 289 290 290 290 290 290 289
303 303 303 303 304 297 285 286 286 285 282 283 283 283 286 287 287 288 291 288 285 284 287 291 292 293 293 293 291 290 291 289 286 283 287 286 281 286 288 289 290 289 284 289
303 303 302 302 303 298 288 287 285 281 278 282 284 287 286 285 285 285 288 288 283 289 293 292 292 292 292 292 294 295 290 289 287 282 282 275 285 292 292 289 290 291 293 293
303 302 302 302 301 301 290 288 285 281 278 283 282 284 284 286 286 283 283 286 291 290 290 285 282 283 284 288 292 293 294 289 283 280 276 283 287 291 291 289 288 294 291 293
302 302 302 301 300 300 291 288 288 284 279 278 285 283 283 279 278 283 287 288 289 289 286 282 277 276 282 283 287 292 292 291 285 280 278 274 283 295 298 296 285 295 295 294
302 302 302 301 300 300 296 289 288 289 282 283 283 280 280 284 281 279 281 283 284 287 280 279 278 279 286 281 281 281 285 285 282 282 280 282 291 294 296 284 283 295 295 294
303 302 302 302 301 301 297 292 293 291 286 285 286 287 283 282 281 277 281 280 286 285 283 284 283 282 282 281 285 283 283 283 283 284 281 279 295 292 285 289 290 293 292 293
302 302 302 302 301 301 300 291 294 295 289 285 289 290 290 289 288 284 282 280 280 282 280 280 280 276 282 282 279 289 281 286 284 285 284 291 293 291 293 292 290 292 292 294
302 302 302 301 301 301 301 295 293 290 288 285 281 282 287 291 291 291 280 281 284 282 286 283 283 280 285 277 279 282 288 291 286 285 285 288 291 293 293 294 293 294 293 294
301 302 301 301 301 302 300 289 289 292 289 282 281 289 286 291 289 289 289 287 285 284 286 287 285 281 284 280 283 283 286 286 285 285 288 289 290 291 293 293 294 294 296 296
300 300 301 301 301 301 297 294 289 292 289 282 283 288 288 289 288 289 289 287 285 281 280 281 282 282 284 284 284 284 288 286 282 282 288 286 287 291 293 292 293 295 293 291
300 300 301 301 300 300 293 282 292 295 295 286 278 282 284 286 287 287 287 287 285 284 281 281 283 287 288 282 278 286 289 291 292 289 292 291 291 293 294 295 294 293 291 292
300 300 300 300 300 293 290 283 292 298 294 284 277 277 283 286 286 288 288 287 285 285 285 284 285 286 289 286 281 288 292 293 293 294 294 291 293 293 295 295 292 293 292 291
300 300 300 300 300 298 291 295 299 298 291 289 279 278 280 285 283 282 286 285 286 285 285 288 289 290 289 284 290 291 292 294 294 295 296 294 295 295 293 293 292 290 288 288
299 300 300 293 294 289 287 299 300 297 292 282 282 279 276 286 284 284 283 287 286 291 290 289 288 286 284 287 289 290 292 292 292 294 294 294 293 293 291 291 289 287 287 287
299 293 288 284 293 298 298 295 290 288 288 288 282 285 280 284 285 286 282 284 283 286 289 290 286 285 290 292 293 294 294 294 294 292 291 292 291 289 290 289 288 288 287 286
287 283 283 289 295 290 288 282 283 285 283 286 286 286 283 289 283 285 288 283 285 284 286 287 283 283 287 292 293 294 295 295 294 295 293 291 290 290 289 288 289 287 286 285
289 289 293 290 287 284 282 280 282 284 281 287 285 287 288 289 292 288 289 287 287 283 289 281 277 287 289 291 292 294 296 295 294 293 290 290 290 290 290 289 288 287 286 285
289 290 286 285 283 278 279 277 279 280 286 290 289 287 285 286 290 289 289 285 282 288 278 276 284 287 290 292 294 295 297 296 294 292 292 291 291 291 290 289 291 290 287 288
285 282 273 279 279 280 279 283 283 287 288 287 287 283 283 284 283 289 284 286 285 273 274 279 286 289 291 294 295 294 294 295 294 292 291 290 290 290 290 291 291 290 288 289
283 283 275 279 283 287 287 288 286 288 288 287 283 283 282 283 285 288 285 277 273 275 277 284 289 291 292 293 293 293 293 293 292 292 291 290 290 290 290 291 290 289 289 288
284 282 279 281 282 282 282 282 282 285 285 285 284 282 281 284 285 285 280 276 273 277 284 288 291 290 291 291 294 293 295 293 292 291 291 291 291 290 290 291 289 288 289 288
282 280 281 279 279 281 281 281 283 285 284 281 282 280 281 286 282 282 283 276 281 285 288 290 291 290 291 293 292 293 295 293 292 291 291 291 291 290 289 288 289 288 289 289
Wind_Speed
20 22 23 25 26 29 9 4 5 6 8 4 2 3 6 7 7 9 6 5 3 3 4 5 4 7 8 5 6 6 5 6 5 10 3 1 3 7 7 6 5 4 2 10
18 19 21 23 24 22 4 3 4 6 4 4 4 6 6 3 8 7 6 5 6 6 4 7 5 6 6 8 8 8 7 3 2 7 6 2 4 5 5 4 4 6 3 8
18 19 20 22 25 23 3 3 6 6 7 3 4 5 5 6 6 1 6 6 6 6 6 4 8 9 6 7 3 5 6 6 10 12 8 4 4 5 6 7 5 3 22 24
16 19 20 21 24 21 3 4 2 1 6 3 3 2 4 6 4 5 6 2 7 7 5 6 5 5 13 11 5 3 0 6 4 4 4 5 8 11 12 15 17 11 33 21
15 16 18 19 23 16 6 3 4 5 4 5 7 3 3 3 5 6 7 5 10 7 8 7 5 9 6 9 11 3 3 4 8 9 15 15 22 18 16 19 22 20 26 34
13 14 16 18 19 11 4 2 2 3 4 4 2 4 3 5 11 8 2 7 11 13 11 9 15 14 15 14 11 15 4 1 1 10 2 4 13 15 20 14 15 14 17 19
11 12 13 15 15 8 3 1 2 2 5 1 4 5 7 15 12 10 9 12 10 5 15 16 12 14 17 18 20 16 13 15 10 7 3 10 6 2 3 8 7 5 2 2
9 10 11 12 12 7 3 0 2 2 4 3 9 7 5 6 6 13 12 18 7 11 9 5 7 5 5 12 22 21 21 13 3 4 5 8 9 2 3 4 5 4 3 4
8 9 9 10 9 8 4 0 1 2 0 5 4 3 2 4 4 5 5 6 11 4 3 2 5 5 2 5 7 2 8 3 6 3 3 5 5 4 2 4 4 6 5 8
8 9 9 8 8 7 3 1 2 1 4 5 3 5 2 3 2 5 5 6 6 3 2 3 5 6 5 5 5 5 4 4 10 8 7 7 1 9 7 5 3 7 4 5
8 9 9 8 9 7 4 2 4 2 3 11 9 6 5 4 4 4 5 7 0 2 4 4 4 3 3 5 2 6 4 4 5 6 8 8 9 8 4 8 3 7 5 5
7 9 10 8 9 9 6 3 3 3 4 9 10 17 20 20 20 8 5 5 2 4 1 2 3 3 3 4 3 5 3 4 4 3 3 7 9 14 9 4 8 5 5 10
10 10 10 10 11 12 9 2 1 1 4 9 2 7 7 10 18 17 6 2 7 5 5 1 4 7 3 3 5 4 1 2 3 5 5 9 10 9 6 5 4 6 8 11
10 10 10 12 13 12 8 2 3 2 3 5 8 4 8 7 9 14 21 13 1 1 2 3 4 4 4 4 5 4 5 2 4 11 15 14 8 5 3 4 5 8 11 11
11 12 12 12 11 11 5 4 4 5 4 4 10 16 8 2 7 11 12 15 12 2 2 4 5 4 3 6 3 13 9 10 5 12 15 9 11 5 5 6 7 10 10 12
12 13 14 11 11 9 3 4 1 3 4 3 7 5 7 6 7 10 10 13 7 5 5 5 5 6 3 5 5 5 8 9 15 18 15 7 9 6 4 7 11 10 9 13
14 13 13 14 12 1 3 5 2 4 3 2 6 6 6 6 5 2 2 6 4 4 4 5 7 6 6 4 8 7 10 9 9 10 6 6 3 6 9 8 7 10 14 15
14 16 16 16 13 10 7 6 16 9 1 3 4 7 6 2 4 4 1 2 3 4 4 3 3 1 5 4 4 12 13 13 11 4 3 7 9 8 6 5 9 12 13 14
16 18 20 4 3 3 4 5 2 6 3 3 4 4 6 4 3 3 4 1 3 3 4 2 1 1 2 5 12 13 12 10 10 8 7 8 10 8 8 8 9 11 13 13
17 2 1 1 2 8 8 2 3 2 3 4 4 2 6 3 2 3 3 1 3 3 1 0 1 1 5 7 11 10 10 9 8 9 9 11 10 9 8 9 9 10 11 13
3 3 2 2 7 0 1 2 3 4 4 4 4 5 5 3 4 3 2 3 3 3 3 3 3 2 6 13 14 11 11 7 6 5 6 5 5 7 9 10 9 10 11 12
4 3 4 2 1 2 3 4 2 4 4 3 3 4 4 4 3 4 3 3 2 3 4 3 5 2 14 13 14 15 12 7 4 3 4 5 5 5 7 9 10 10 11 12
2 2 3 3 3 4 5 5 3 2 2 1 3 4 3 3 3 4 2 2 3 3 4 1 2 8 13 11 10 13 12 8 5 4 3 4 5 5 5 9 9 10 9 11
2 3 4 4 5 4 3 1 1 4 4 6 4 3 3 2 2 1 3 3 3 5 4 3 4 12 12 11 10 9 12 11 7 6 5 5 5 6 7 6 7 9 11 11
3 3 4 5 2 1 3 5 3 3 3 3 3 2 0 3 3 1 2 4 3 2 4 3 7 11 9 9 10 10 9 8 6 5 5 6 5 5 7 6 6 6 9 9
3 5 4 3 0 4 3 3 4 1 4 2 1 2 2 1 3 1 3 3 2 5 4 4 4 7 7 8 10 9 7 6 5 6 5 6 6 5 6 6 6 7 8 9
4 5 3 3 4 5 5 3 4 1 3 2 2 3 1 2 1 2 1 4 4 4 5 4 4 6 9 8 9 8 6 5 4 5 6 5 5 5 7 8 7 7 8 8
Wind_Direction
356 356 354 352 353 349 33 1 348 327 351 49 39 40 329 311 344 18 330 328 323 279 323 295 258 228 221 176 160 196 203 164 206 213 251 24 175 201 155 143 234 232 208 270
355 354 355 352 353 0 337 17 279 316 29 48 21 328 319 292 355 345 349 310 8 3 298 313 242 242 256 240 184 186 183 203 350 333 348 20 200 195 153 107 68 203 180 255
354 355 358 355 350 354 82 42 358 328 31 32 73 350 293 324 328 174 356 288 44 353 347 321 315 306 313 333 281 190 157 180 173 234 214 172 197 179 192 160 166 213 250 282
358 358 359 358 352 352 78 25 47 159 332 332 317 251 276 289 338 5 342 312 49 0 299 314 358 350 332 318 286 292 284 250 205 266 291 274 244 240 232 232 248 229 270 259
358 358 2 5 0 354 75 59 26 349 278 301 341 349 295 316 15 351 316 342 341 320 286 270 286 308 319 276 324 253 130 255 263 270 273 269 258 245 240 240 246 249 255 273
357 359 4 14 18 28 66 332 359 111 277 328 356 256 359 324 341 286 295 342 326 316 296 309 290 272 256 243 271 286 295 268 275 264 256 294 276 218 219 228 238 232 243 264
355 357 2 17 28 63 112 218 108 86 275 248 232 308 321 296 300 275 288 290 276 258 323 301 272 256 242 236 237 218 218 240 247 264 140 255 259 186 188 209 232 212 196 12
346 353 358 11 15 64 71 58 115 132 274 233 284 272 262 305 299 278 269 277 250 311 292 281 301 281 271 236 234 230 224 239 224 231 213 303 294 190 165 167 254 182 105 324
335 340 351 360 1 23 78 255 167 92 36 247 270 335 306 291 278 299 255 334 315 305 247 278 247 240 277 266 301 2 126 184 215 165 246 240 238 66 186 95 253 140 343 309
324 330 335 342 336 350 342 256 199 180 269 270 196 198 243 280 300 264 309 312 311 211 239 237 235 243 240 265 251 299 227 185 234 240 245 272 80 61 355 227 233 248 237 271
302 321 318 324 316 321 324 264 177 211 258 277 234 239 231 256 189 215 301 343 184 300 268 311 344 310 58 323 325 290 281 273 215 215 216 227 67 343 260 233 294 262 287 291
297 307 311 313 311 304 286 246 199 190 227 261 273 262 250 240 243 258 235 231 346 251 328 357 345 313 282 240 271 204 262 229 298 249 263 211 252 247 261 272 257 270 279 292
297 294 298 306 302 292 294 228 149 251 271 285 342 275 257 230 227 218 219 246 203 234 211 150 233 250 252 238 241 257 276 31 293 325 273 270 279 273 262 192 230 262 271 280
306 299 299 301 294 302 315 184 197 223 281 283 281 287 264 220 203 200 210 222 286 136 99 226 247 253 206 254 262 230 216 287 262 263 288 290 277 262 261 275 289 270 290 292
296 294 289 288 307 307 315 226 208 186 222 281 292 309 275 24 184 217 204 215 224 198 236 217 238 233 226 245 242 255 226 247 222 258 267 261 276 276 286 288 286 311 302 298
296 296 294 296 303 320 324 334 308 166 171 301 299 290 295 290 224 224 208 209 197 196 181 219 222 231 192 256 250 261 227 237 238 260 275 252 271 279 278 311 314 301 289 294
289 299 299 294 291 208 216 205 192 128 111 314 296 294 274 290 297 303 165 157 184 173 211 222 239 243 188 247 264 347 322 307 310 297 290 282 277 313 314 294 305 310 311 310
298 297 294 289 279 278 255 244 243 203 139 223 270 274 317 297 307 311 49 184 192 205 231 243 214 186 192 252 311 306 305 292 293 304 328 287 287 288 298 321 326 317 315 313
302 302 301 327 196 201 239 261 44 165 192 222 228 286 280 347 289 265 312 231 244 215 238 236 26 352 19 278 313 311 317 332 330 327 307 295 290 311 336 324 320 314 315 314
312 342 32 245 134 312 305 105 167 157 197 234 248 202 265 344 313 282 304 238 245 257 82 339 184 131 268 330 315 324 311 284 301 313 328 325 331 335 329 330 322 314 309 308
19 6 280 306 321 35 207 233 222 174 227 204 228 217 257 257 236 266 236 281 261 269 14 318 43 317 347 327 323 329 323 320 282 301 327 334 317 321 327 323 321 312 311 311
221 268 279 291 278 192 214 212 228 226 247 187 229 234 226 265 230 254 232 283 276 355 308 43 342 312 326 318 318 313 311 305 326 309 325 325 318 312 310 317 316 314 309 311
12 227 231 217 201 225 221 207 195 237 301 267 245 281 231 289 246 263 283 293 325 304 38 283 292 311 307 313 315 319 317 290 260 271 279 291 294 297 294 308 317 316 325 327
251 258 276 224 200 230 201 226 204 224 236 259 255 250 220 238 278 277 310 329 355 39 1 300 330 317 307 315 320 335 323 322 328 311 298 297 293 301 304 294 311 332 338 331
252 238 246 234 263 287 235 245 270 256 240 262 293 271 157 278 270 321 354 27 36 200 249 259 288 293 307 314 325 325 321 330 339 341 325 319 311 305 307 322 332 339 334 336
240 232 259 244 271 271 277 286 275 271 302 294 141 278 272 271 307 214 20 95 218 254 237 258 293 295 309 311 321 318 313 331 357 3 359 1 356 338 323 333 357 341 348 343
231 243 217 239 273 245 248 228 253 319 338 302 323 316 306 304 11 357 220 176 231 249 285 285 259 286 300 308 313 320 323 344 18 7 13 11 7 15 18 13 346 354 353 346